Location: Niles Junction
(37.5763°N, 121.9714°W)
Time: 13:19:10
(UTC+00:00)

ADEOS Rocket - Pass Details

Date: 29 October 2020
Orbit: 859 x 1306 km, 98.7° (Epoch: 01 December)

Event Time Altitude Azimuth Distance (km) Brightness Sun altitude
Rises 12:42:30 0° 181° (S) 3,450 5.9 -21.9°
Reaches altitude 10° 12:44:58 10° 187° (S) 2,497 5.1 -21.4°
Maximum altitude 12:50:13 47° 261° (W) 1,129 2.9 -20.4°
Drops below altitude 10° 12:55:34 10° 334° (NNW) 2,540 4.9 -19.3°
Sets 12:58:06 0° 341° (NNW) 3,517 5.7 -18.8°
